Time,TemperatureF,DewpointF,PressureIn,WindDirection,WindDirectionDegrees,WindSpeedMPH,WindSpeedGustMPH,Humidity,HourlyPrecipIn,Conditions,Clouds,dailyrainin,SoftwareType,DateUTC
2013-04-05 00:02:00,50.5,49.4,29.75,North,4,0.0,0.0,96,0.00,RA,OVC,0.00,WeatherDisplay:10.37,2013-04-05 07:02:00,
2013-04-05 00:07:00,50.6,49.5,29.75,North,2,0.0,0.0,96,0.00,RA,OVC,0.00,WeatherDisplay:10.37,2013-04-05 07:07:00,
2013-04-05 00:12:00,50.6,49.5,29.74,North,3,0.0,0.0,96,0.00,,OVC,0.00,WeatherDisplay:10.37,2013-04-05 07:12:00,
2013-04-05 00:17:00,50.6,49.5,29.74,North,3,0.0,0.0,96,0.00,,OVC,0.00,WeatherDisplay:10.37,2013-04-05 07:17:00,
2013-04-05 00:22:00,50.7,49.6,29.74,North,3,0.0,0.0,96,0.00,,OVC,0.00,WeatherDisplay:10.37,2013-04-05 07:22:00,
2013-04-05 00:27:00,50.6,49.5,29.74,North,3,0.0,0.0,96,0.00,,OVC,0.00,WeatherDisplay:10.37,2013-04-05 07:27:00,
2013-04-05 00:32:00,50.6,49.5,29.75,North,3,0.0,0.0,96,0.00,,OVC,0.00,WeatherDisplay:10.37,2013-04-05 07:32:00,
2013-04-05 00:37:00,50.6,49.5,29.75,North,3,0.0,0.0,96,0.00,,OVC,0.00,WeatherDisplay:10.37,2013-04-05 07:37:00,
2013-04-05 00:42:00,50.6,49.5,29.75,North,4,0.0,0.0,96,0.00,,OVC,0.00,WeatherDisplay:10.37,2013-04-05 07:42:00,
2013-04-05 00:47:00,50.7,49.6,29.75,North,3,0.0,0.0,96,0.00,,OVC,0.00,WeatherDisplay:10.37,2013-04-05 07:47:00,
2013-04-05 00:52:00,50.7,49.6,29.75,North,3,0.0,0.0,96,0.00,,OVC,0.00,WeatherDisplay:10.37,2013-04-05 07:52:00,
2013-04-05 00:57:00,50.6,49.5,29.74,North,3,0.0,0.0,96,0.00,,OVC,0.00,WeatherDisplay:10.37,2013-04-05 07:57:00,
2013-04-05 01:07:00,50.6,49.5,29.75,North,1,0.0,0.0,96,0.01,RA,OVC,0.01,WeatherDisplay:10.37,2013-04-05 08:07:00,
2013-04-05 01:12:00,50.6,49.5,29.75,North,1,0.0,0.0,96,0.00,,OVC,0.01,WeatherDisplay:10.37,2013-04-05 08:12:00,
2013-04-05 01:17:00,50.6,49.5,29.75,North,1,0.0,0.0,96,0.00,,OVC,0.01,WeatherDisplay:10.37,2013-04-05 08:17:00,
2013-04-05 01:22:00,50.6,49.5,29.74,North,1,0.0,0.0,96,0.00,,OVC,0.01,WeatherDisplay:10.37,2013-04-05 08:22:00,
2013-04-05 01:27:00,50.5,49.4,29.74,North,3,0.0,0.0,96,0.00,,OVC,0.01,WeatherDisplay:10.37,2013-04-05 08:27:00,
2013-04-05 01:32:00,50.5,49.4,29.74,North,3,0.0,0.0,96,0.00,,OVC,0.01,WeatherDisplay:10.37,2013-04-05 08:32:00,
2013-04-05 01:42:00,50.4,49.3,29.74,North,2,0.0,0.0,96,0.00,,OVC,0.01,WeatherDisplay:10.37,2013-04-05 08:42:00,
2013-04-05 01:47:00,50.3,49.3,29.74,North,1,0.0,0.0,96,0.00,,OVC,0.01,WeatherDisplay:10.37,2013-04-05 08:47:00,
2013-04-05 01:52:00,50.3,49.2,29.74,North,2,0.0,0.0,96,0.00,,OVC,0.01,WeatherDisplay:10.37,2013-04-05 08:52:00,
2013-04-05 01:57:00,50.3,49.2,29.75,North,3,0.0,0.0,96,0.00,,OVC,0.01,WeatherDisplay:10.37,2013-04-05 08:57:00,
2013-04-05 02:07:00,50.3,49.2,29.75,North,3,0.0,0.0,96,0.00,,OVC,0.01,WeatherDisplay:10.37,2013-04-05 09:07:00,
2013-04-05 02:12:00,50.3,49.2,29.74,North,3,0.0,0.0,96,0.01,RA,OVC,0.02,WeatherDisplay:10.37,2013-04-05 09:12:00,
2013-04-05 02:17:00,50.3,49.2,29.74,North,1,0.0,0.0,96,0.01,RA,OVC,0.02,WeatherDisplay:10.37,2013-04-05 09:17:00,
2013-04-05 02:22:00,50.2,49.1,29.74,North,1,0.0,0.0,96,0.00,,OVC,0.02,WeatherDisplay:10.37,2013-04-05 09:22:00,
2013-04-05 02:27:00,50.2,49.1,29.74,North,3,0.0,0.0,96,0.01,RA,OVC,0.03,WeatherDisplay:10.37,2013-04-05 09:27:00,
2013-04-05 02:32:00,50.1,48.7,29.74,North,2,0.0,0.0,95,0.01,RA,OVC,0.03,WeatherDisplay:10.37,2013-04-05 09:32:00,
2013-04-05 02:37:00,50.1,48.7,29.74,North,3,0.0,0.0,95,0.00,,OVC,0.03,WeatherDisplay:10.37,2013-04-05 09:37:00,
2013-04-05 02:42:00,50.1,48.7,29.74,North,3,0.0,0.0,95,0.00,,OVC,0.03,WeatherDisplay:10.37,2013-04-05 09:42:00,
2013-04-05 02:47:00,50.0,48.7,29.74,North,3,0.0,0.0,95,0.01,RA,OVC,0.04,WeatherDisplay:10.37,2013-04-05 09:47:00,
2013-04-05 02:52:00,50.0,48.6,29.74,North,3,0.0,0.0,95,0.01,RA,OVC,0.04,WeatherDisplay:10.37,2013-04-05 09:52:00,
2013-04-05 02:57:00,50.0,48.6,29.74,North,1,0.0,0.0,95,0.00,,OVC,0.04,WeatherDisplay:10.37,2013-04-05 09:57:00,
2013-04-05 03:02:00,49.9,48.5,29.74,North,2,0.0,0.0,95,0.00,,OVC,0.04,WeatherDisplay:10.37,2013-04-05 10:02:00,
2013-04-05 03:07:00,49.9,48.5,29.75,North,3,0.0,0.0,95,0.01,RA,OVC,0.05,WeatherDisplay:10.37,2013-04-05 10:07:00,
2013-04-05 03:12:00,49.9,48.5,29.75,North,3,0.0,0.0,95,0.01,RA,OVC,0.05,WeatherDisplay:10.37,2013-04-05 10:12:00,
2013-04-05 03:17:00,49.8,48.4,29.75,North,2,0.0,0.0,95,0.00,,OVC,0.05,WeatherDisplay:10.37,2013-04-05 10:17:00,
2013-04-05 03:22:00,49.7,48.3,29.75,North,1,0.0,0.0,95,0.00,,OVC,0.05,WeatherDisplay:10.37,2013-04-05 10:22:00,
2013-04-05 03:32:00,49.5,48.1,29.75,North,1,0.0,0.0,95,0.01,RA,OVC,0.06,WeatherDisplay:10.37,2013-04-05 10:32:00,
2013-04-05 03:37:00,49.4,48.0,29.75,North,3,0.0,0.0,95,0.01,RA,OVC,0.06,WeatherDisplay:10.37,2013-04-05 10:37:00,
2013-04-05 03:42:00,49.3,47.9,29.75,North,3,0.0,0.0,95,0.00,,OVC,0.06,WeatherDisplay:10.37,2013-04-05 10:42:00,
2013-04-05 03:52:00,49.1,47.7,29.75,North,3,0.0,0.0,95,0.01,RA,OVC,0.07,WeatherDisplay:10.37,2013-04-05 10:52:00,
2013-04-05 03:57:00,49.1,47.7,29.75,North,2,0.0,0.0,95,0.00,,OVC,0.07,WeatherDisplay:10.37,2013-04-05 10:57:00,
2013-04-05 04:02:00,49.1,47.7,29.75,North,2,0.0,0.0,95,0.00,,OVC,0.07,WeatherDisplay:10.37,2013-04-05 11:02:00,
2013-04-05 04:07:00,49.0,47.6,29.76,North,1,0.0,0.0,95,0.00,,OVC,0.07,WeatherDisplay:10.37,2013-04-05 11:07:00,
2013-04-05 04:12:00,49.0,47.6,29.76,North,1,0.0,0.0,95,0.00,,OVC,0.07,WeatherDisplay:10.37,2013-04-05 11:12:00,
2013-04-05 04:17:00,48.9,47.5,29.76,North,1,0.0,0.0,95,0.00,,OVC,0.07,WeatherDisplay:10.37,2013-04-05 11:17:00,
2013-04-05 04:22:00,48.8,47.4,29.76,North,1,0.0,0.0,95,0.01,RA,OVC,0.08,WeatherDisplay:10.37,2013-04-05 11:22:00,
2013-04-05 04:27:00,48.7,47.3,29.76,North,3,0.0,0.0,95,0.01,RA,OVC,0.08,WeatherDisplay:10.37,2013-04-05 11:27:00,
2013-04-05 04:32:00,48.6,47.2,29.76,North,1,0.0,0.0,95,0.00,,OVC,0.08,WeatherDisplay:10.37,2013-04-05 11:32:00,
2013-04-05 04:37:00,48.5,47.1,29.76,North,0,0.0,0.0,95,0.00,,OVC,0.08,WeatherDisplay:10.37,2013-04-05 11:37:00,
2013-04-05 04:42:00,48.5,47.1,29.76,North,1,0.0,0.0,95,0.01,RA,OVC,0.09,WeatherDisplay:10.37,2013-04-05 11:42:00,
2013-04-05 04:47:00,48.4,47.0,29.76,North,1,0.0,0.0,95,0.01,RA,OVC,0.09,WeatherDisplay:10.37,2013-04-05 11:47:00,
2013-04-05 04:52:00,48.4,47.0,29.76,North,1,0.0,0.0,95,0.01,RA,OVC,0.10,WeatherDisplay:10.37,2013-04-05 11:52:00,
2013-04-05 04:57:00,48.4,47.0,29.76,North,1,0.0,0.0,95,0.02,RA,OVC,0.11,WeatherDisplay:10.37,2013-04-05 11:57:00,
2013-04-05 05:02:00,48.3,46.9,29.76,North,1,0.0,0.0,95,0.01,RA,OVC,0.11,WeatherDisplay:10.37,2013-04-05 12:02:00,
2013-04-05 05:07:00,48.3,46.9,29.76,North,2,0.0,0.0,95,0.00,,OVC,0.11,WeatherDisplay:10.37,2013-04-05 12:07:00,
2013-04-05 05:12:00,48.3,46.9,29.76,North,2,0.0,0.0,95,0.01,RA,OVC,0.12,WeatherDisplay:10.37,2013-04-05 12:12:00,
2013-04-05 05:17:00,48.3,46.9,29.76,North,1,0.0,0.0,95,0.02,RA,OVC,0.13,WeatherDisplay:10.37,2013-04-05 12:17:00,
2013-04-05 05:22:00,48.3,46.9,29.76,North,1,0.0,0.0,95,0.02,RA,OVC,0.14,WeatherDisplay:10.37,2013-04-05 12:22:00,
2013-04-05 05:27:00,48.3,46.9,29.76,North,1,0.0,0.0,95,0.02,RA,OVC,0.15,WeatherDisplay:10.37,2013-04-05 12:27:00,
2013-04-05 05:32:00,48.3,46.9,29.76,North,1,0.0,0.0,95,0.02,RA,OVC,0.16,WeatherDisplay:10.37,2013-04-05 12:32:00,
2013-04-05 05:37:00,48.3,46.9,29.76,North,3,0.0,0.0,95,0.02,RA,OVC,0.17,WeatherDisplay:10.37,2013-04-05 12:37:00,
2013-04-05 05:42:00,48.3,46.9,29.76,North,3,0.0,0.0,95,0.03,RA,OVC,0.19,WeatherDisplay:10.37,2013-04-05 12:42:00,
2013-04-05 05:47:00,48.2,46.9,29.76,North,1,0.0,0.0,95,0.03,RA,OVC,0.20,WeatherDisplay:10.37,2013-04-05 12:47:00,
2013-04-05 05:57:00,48.2,46.8,29.77,North,3,0.0,0.0,95,0.04,RA,OVC,0.24,WeatherDisplay:10.37,2013-04-05 12:57:00,
2013-04-05 06:02:00,48.2,46.8,29.77,North,2,0.0,0.0,95,0.04,RA,OVC,0.26,WeatherDisplay:10.37,2013-04-05 13:02:00,
2013-04-05 06:07:00,48.2,46.8,29.77,North,1,0.0,0.0,95,0.03,RA,OVC,0.27,WeatherDisplay:10.37,2013-04-05 13:07:00,
2013-04-05 06:12:00,48.3,46.9,29.77,North,1,0.0,0.0,95,0.04,RA,OVC,0.30,WeatherDisplay:10.37,2013-04-05 13:12:00,
2013-04-05 06:17:00,48.3,46.9,29.77,North,1,0.0,0.0,95,0.04,RA,OVC,0.31,WeatherDisplay:10.37,2013-04-05 13:17:00,
2013-04-05 06:22:00,48.3,47.2,29.77,North,1,0.0,0.0,96,0.02,RA,OVC,0.32,WeatherDisplay:10.37,2013-04-05 13:22:00,
2013-04-05 06:27:00,48.4,47.3,29.77,North,2,0.0,0.0,96,0.03,RA,OVC,0.34,WeatherDisplay:10.37,2013-04-05 13:27:00,
2013-04-05 06:32:00,48.4,47.3,29.77,North,2,0.0,0.0,96,0.03,RA,OVC,0.35,WeatherDisplay:10.37,2013-04-05 13:32:00,
2013-04-05 06:37:00,48.5,47.4,29.78,North,2,0.0,0.0,96,0.01,RA,OVC,0.35,WeatherDisplay:10.37,2013-04-05 13:37:00,
2013-04-05 06:42:00,48.5,47.4,29.78,North,2,0.0,0.0,96,0.01,RA,OVC,0.36,WeatherDisplay:10.37,2013-04-05 13:42:00,
2013-04-05 06:47:00,48.5,47.4,29.78,North,3,0.0,0.0,96,0.02,RA,OVC,0.37,WeatherDisplay:10.37,2013-04-05 13:47:00,
2013-04-05 06:52:00,48.5,47.4,29.78,North,2,0.0,0.0,96,0.01,RA,OVC,0.37,WeatherDisplay:10.37,2013-04-05 13:52:00,
2013-04-05 06:57:00,48.5,47.4,29.78,North,3,0.0,0.0,96,0.01,RA,OVC,0.38,WeatherDisplay:10.37,2013-04-05 13:57:00,
2013-04-05 07:02:00,48.5,47.4,29.78,North,3,0.0,0.0,96,0.02,RA,OVC,0.39,WeatherDisplay:10.37,2013-04-05 14:02:00,
2013-04-05 07:07:00,48.5,47.4,29.79,North,3,0.0,0.0,96,0.01,RA,OVC,0.39,WeatherDisplay:10.37,2013-04-05 14:07:00,
2013-04-05 07:12:00,48.5,47.4,29.79,North,3,0.0,0.0,96,0.00,,OVC,0.39,WeatherDisplay:10.37,2013-04-05 14:12:00,
2013-04-05 07:17:00,48.5,47.4,29.79,North,1,0.0,0.0,96,0.00,,OVC,0.39,WeatherDisplay:10.37,2013-04-05 14:17:00,
2013-04-05 07:22:00,48.5,47.4,29.79,North,3,0.0,0.0,96,0.00,,OVC,0.39,WeatherDisplay:10.37,2013-04-05 14:22:00,
2013-04-05 07:27:00,48.5,47.4,29.79,North,3,0.0,0.0,96,0.00,,OVC,0.39,WeatherDisplay:10.37,2013-04-05 14:27:00,
2013-04-05 07:37:00,48.5,47.4,29.80,North,1,0.0,0.0,96,0.00,,OVC,0.39,WeatherDisplay:10.37,2013-04-05 14:37:00,
2013-04-05 07:42:00,48.5,47.4,29.80,North,3,0.0,0.0,96,0.00,,OVC,0.39,WeatherDisplay:10.37,2013-04-05 14:42:00,
2013-04-05 07:47:00,48.6,47.5,29.80,North,1,0.0,0.0,96,0.00,,OVC,0.39,WeatherDisplay:10.37,2013-04-05 14:47:00,
2013-04-05 07:52:00,48.6,47.5,29.80,North,1,0.0,0.0,96,0.00,,OVC,0.39,WeatherDisplay:10.37,2013-04-05 14:52:00,
2013-04-05 07:57:00,48.6,47.5,29.81,North,3,0.0,0.0,96,0.00,,OVC,0.39,WeatherDisplay:10.37,2013-04-05 14:57:00,
2013-04-05 08:07:00,48.6,47.5,29.81,North,3,0.0,0.0,96,0.00,CLR,OVC,0.39,WeatherDisplay:10.37,2013-04-05 15:07:00,
2013-04-05 08:12:00,48.7,47.6,29.81,North,2,0.0,0.0,96,0.00,CLR,OVC,0.39,WeatherDisplay:10.37,2013-04-05 15:12:00,
2013-04-05 08:22:00,48.7,47.6,29.82,North,1,0.0,0.0,96,0.00,CLR,OVC,0.39,WeatherDisplay:10.37,2013-04-05 15:22:00,
2013-04-05 08:27:00,48.7,47.6,29.82,North,3,0.0,0.0,96,0.00,CLR,OVC,0.39,WeatherDisplay:10.37,2013-04-05 15:27:00,
2013-04-05 08:37:00,48.8,47.7,29.83,North,5,0.0,0.0,96,0.00,CLR,OVC,0.39,WeatherDisplay:10.37,2013-04-05 15:37:00,
2013-04-05 08:42:00,48.9,47.8,29.83,North,3,0.0,0.0,96,0.00,CLR,OVC,0.39,WeatherDisplay:10.37,2013-04-05 15:42:00,
2013-04-05 08:47:00,48.9,47.8,29.83,North,3,0.0,0.0,96,0.00,CLR,OVC,0.39,WeatherDisplay:10.37,2013-04-05 15:47:00,
2013-04-05 08:52:00,49.0,47.9,29.83,North,2,0.0,0.0,96,0.00,CLR,OVC,0.39,WeatherDisplay:10.37,2013-04-05 15:52:00,
2013-04-05 09:02:00,48.9,47.8,29.83,North,4,0.0,0.0,96,0.00,CLR,OVC,0.39,WeatherDisplay:10.37,2013-04-05 16:02:00,
2013-04-05 09:07:00,48.9,47.8,29.83,North,4,0.0,0.0,96,0.00,CLR,OVC,0.39,WeatherDisplay:10.37,2013-04-05 16:07:00,
2013-04-05 09:12:00,49.0,47.9,29.84,North,2,0.0,0.0,96,0.00,CLR,OVC,0.39,WeatherDisplay:10.37,2013-04-05 16:12:00,
2013-04-05 09:17:00,49.2,48.1,29.84,North,3,0.0,0.0,96,0.00,CLR,OVC,0.39,WeatherDisplay:10.37,2013-04-05 16:17:00,
2013-04-05 09:22:00,49.4,48.3,29.84,North,3,0.0,0.0,96,0.00,CLR,OVC,0.39,WeatherDisplay:10.37,2013-04-05 16:22:00,
2013-04-05 09:27:00,49.5,48.4,29.84,North,5,0.0,0.0,96,0.00,CLR,OVC,0.39,WeatherDisplay:10.37,2013-04-05 16:27:00,
2013-04-05 09:32:00,49.5,48.4,29.84,North,5,0.0,0.0,96,0.00,CLR,OVC,0.39,WeatherDisplay:10.37,2013-04-05 16:32:00,
2013-04-05 09:42:00,49.7,48.6,29.84,North,4,0.0,0.0,96,0.00,CLR,OVC,0.39,WeatherDisplay:10.37,2013-04-05 16:42:00,
2013-04-05 09:52:00,49.8,48.7,29.84,North,4,0.0,0.0,96,0.00,CLR,OVC,0.39,WeatherDisplay:10.37,2013-04-05 16:52:00,
2013-04-05 10:02:00,49.9,48.8,29.84,North,3,0.0,0.0,96,0.00,CLR,OVC,0.39,WeatherDisplay:10.37,2013-04-05 17:02:00,
2013-04-05 10:07:00,49.9,48.8,29.84,North,3,0.0,0.0,96,0.00,CLR,OVC,0.39,WeatherDisplay:10.37,2013-04-05 17:07:00,
2013-04-05 10:17:00,50.0,48.9,29.85,North,5,0.0,0.0,96,0.00,CLR,OVC,0.39,WeatherDisplay:10.37,2013-04-05 17:17:00,
2013-04-05 10:22:00,50.1,49.0,29.85,North,3,0.0,0.0,96,0.00,CLR,OVC,0.39,WeatherDisplay:10.37,2013-04-05 17:22:00,
2013-04-05 10:32:00,50.2,49.1,29.85,North,6,0.0,0.0,96,0.00,CLR,OVC,0.39,WeatherDisplay:10.37,2013-04-05 17:32:00,
2013-04-05 10:37:00,50.2,49.1,29.85,North,3,0.0,0.0,96,0.00,CLR,OVC,0.39,WeatherDisplay:10.37,2013-04-05 17:37:00,
2013-04-05 10:47:00,50.3,49.2,29.85,North,3,0.0,0.0,96,0.00,CLR,OVC,0.39,WeatherDisplay:10.37,2013-04-05 17:47:00,
2013-04-05 10:52:00,50.4,49.3,29.85,North,6,0.0,0.0,96,0.00,CLR,OVC,0.39,WeatherDisplay:10.37,2013-04-05 17:52:00,
2013-04-05 10:57:00,50.5,49.4,29.85,North,5,0.0,0.0,96,0.00,CLR,OVC,0.39,WeatherDisplay:10.37,2013-04-05 17:57:00,
2013-04-05 11:02:00,50.4,49.3,29.85,North,3,0.0,0.0,96,0.00,CLR,OVC,0.39,WeatherDisplay:10.37,2013-04-05 18:02:00,
2013-04-05 11:07:00,50.3,49.2,29.85,North,3,0.0,0.0,96,0.00,CLR,OVC,0.39,WeatherDisplay:10.37,2013-04-05 18:07:00,
2013-04-05 11:17:00,50.2,49.1,29.86,North,3,0.0,0.0,96,0.00,CLR,OVC,0.39,WeatherDisplay:10.37,2013-04-05 18:17:00,
2013-04-05 11:22:00,50.3,49.2,29.85,North,6,0.0,0.0,96,0.00,CLR,OVC,0.39,WeatherDisplay:10.37,2013-04-05 18:22:00,
2013-04-05 11:27:00,50.5,49.4,29.86,North,6,0.0,0.0,96,0.00,CLR,OVC,0.39,WeatherDisplay:10.37,2013-04-05 18:27:00,
2013-04-05 11:32:00,50.8,49.7,29.86,North,6,0.0,0.0,96,0.00,CLR,OVC,0.39,WeatherDisplay:10.37,2013-04-05 18:32:00,
2013-04-05 11:42:00,51.1,50.0,29.86,North,5,0.0,0.0,96,0.00,CLR,OVC,0.39,WeatherDisplay:10.37,2013-04-05 18:42:00,
2013-04-05 11:47:00,51.1,50.0,29.86,North,4,0.0,0.0,96,0.00,CLR,OVC,0.39,WeatherDisplay:10.37,2013-04-05 18:47:00,
2013-04-05 11:52:00,51.1,50.0,29.86,North,2,0.0,0.0,96,0.00,CLR,OVC,0.39,WeatherDisplay:10.37,2013-04-05 18:52:00,
2013-04-05 11:57:00,51.0,49.9,29.86,North,3,0.0,0.0,96,0.00,CLR,OVC,0.39,WeatherDisplay:10.37,2013-04-05 18:57:00,
2013-04-05 12:02:00,50.9,49.8,29.87,North,6,0.0,0.0,96,0.00,CLR,OVC,0.39,WeatherDisplay:10.37,2013-04-05 19:02:00,
2013-04-05 12:07:00,50.8,49.4,29.87,North,5,0.0,0.0,95,0.00,CLR,OVC,0.39,WeatherDisplay:10.37,2013-04-05 19:07:00,
2013-04-05 12:12:00,50.7,49.3,29.87,North,5,0.0,0.0,95,0.00,CLR,OVC,0.39,WeatherDisplay:10.37,2013-04-05 19:12:00,
2013-04-05 12:22:00,50.6,49.2,29.87,North,5,0.0,0.0,95,0.00,CLR,OVC,0.39,WeatherDisplay:10.37,2013-04-05 19:22:00,
2013-04-05 12:27:00,50.5,49.1,29.87,North,3,0.0,0.0,95,0.00,CLR,OVC,0.39,WeatherDisplay:10.37,2013-04-05 19:27:00,
2013-04-05 12:32:00,50.3,49.0,29.87,North,5,0.0,0.0,95,0.00,CLR,OVC,0.39,WeatherDisplay:10.37,2013-04-05 19:32:00,
2013-04-05 12:42:00,50.2,48.8,29.87,North,2,0.0,0.0,95,0.00,CLR,OVC,0.39,WeatherDisplay:10.37,2013-04-05 19:42:00,
2013-04-05 12:47:00,50.1,48.5,29.87,North,3,0.0,0.0,94,0.00,CLR,OVC,0.39,WeatherDisplay:10.37,2013-04-05 19:47:00,
2013-04-05 12:52:00,50.1,48.4,29.87,North,5,0.0,0.0,94,0.00,CLR,OVC,0.39,WeatherDisplay:10.37,2013-04-05 19:52:00,
2013-04-05 12:57:00,50.1,48.4,29.88,North,4,0.0,0.0,94,0.00,CLR,OVC,0.39,WeatherDisplay:10.37,2013-04-05 19:57:00,
2013-04-05 13:02:00,50.2,48.6,29.87,North,3,0.0,0.0,94,0.00,CLR,OVC,0.39,WeatherDisplay:10.37,2013-04-05 20:02:00,
2013-04-05 13:07:00,50.5,48.8,29.87,North,2,0.0,0.0,94,0.00,CLR,OVC,0.39,WeatherDisplay:10.37,2013-04-05 20:07:00,
2013-04-05 13:12:00,50.8,49.1,29.87,North,4,0.0,0.0,94,0.00,CLR,OVC,0.39,WeatherDisplay:10.37,2013-04-05 20:12:00,
2013-04-05 13:17:00,51.1,49.4,29.87,North,6,0.0,0.0,94,0.00,CLR,OVC,0.39,WeatherDisplay:10.37,2013-04-05 20:17:00,
2013-04-05 13:22:00,51.3,49.7,29.87,North,7,0.0,0.0,94,0.00,CLR,OVC,0.39,WeatherDisplay:10.37,2013-04-05 20:22:00,
2013-04-05 13:27:00,51.6,49.9,29.87,North,3,0.0,0.0,94,0.00,CLR,OVC,0.39,WeatherDisplay:10.37,2013-04-05 20:27:00,
2013-04-05 13:37:00,52.4,50.7,29.87,North,6,0.0,0.0,94,0.00,CLR,OVC,0.39,WeatherDisplay:10.37,2013-04-05 20:37:00,
2013-04-05 13:42:00,52.5,50.5,29.87,North,6,0.0,0.0,93,0.00,CLR,OVC,0.39,WeatherDisplay:10.37,2013-04-05 20:42:00,
2013-04-05 13:47:00,52.3,50.0,29.87,North,3,0.0,0.0,92,0.00,CLR,OVC,0.39,WeatherDisplay:10.37,2013-04-05 20:47:00,
2013-04-05 13:52:00,52.2,50.0,29.87,North,3,0.0,0.0,92,0.00,CLR,OVC,0.39,WeatherDisplay:10.37,2013-04-05 20:52:00,
2013-04-05 13:57:00,52.1,49.6,29.87,North,6,0.0,0.0,91,0.00,CLR,OVC,0.39,WeatherDisplay:10.37,2013-04-05 20:57:00,
2013-04-05 14:02:00,52.0,49.5,29.87,North,6,0.0,0.0,91,0.00,CLR,OVC,0.39,WeatherDisplay:10.37,2013-04-05 21:02:00,
2013-04-05 14:12:00,52.1,49.8,29.87,North,4,0.0,0.0,92,0.00,CLR,OVC,0.39,WeatherDisplay:10.37,2013-04-05 21:12:00,
2013-04-05 14:17:00,52.2,50.0,29.87,North,5,0.0,0.0,92,0.00,CLR,OVC,0.39,WeatherDisplay:10.37,2013-04-05 21:17:00,
2013-04-05 14:27:00,52.5,50.2,29.87,North,4,0.0,0.0,92,0.00,CLR,OVC,0.39,WeatherDisplay:10.37,2013-04-05 21:27:00,
2013-04-05 14:32:00,52.4,49.8,29.87,North,2,0.0,0.0,91,0.00,CLR,OVC,0.39,WeatherDisplay:10.37,2013-04-05 21:32:00,
2013-04-05 14:42:00,52.3,49.5,29.87,North,6,0.0,0.0,90,0.00,CLR,OVC,0.39,WeatherDisplay:10.37,2013-04-05 21:42:00,
2013-04-05 14:47:00,52.2,49.7,29.87,North,7,0.0,0.0,91,0.00,CLR,OVC,0.39,WeatherDisplay:10.37,2013-04-05 21:47:00,
2013-04-05 14:52:00,52.2,49.4,29.88,North,7,0.0,0.0,90,0.00,CLR,OVC,0.39,WeatherDisplay:10.37,2013-04-05 21:52:00,
2013-04-05 14:57:00,52.3,49.8,29.88,North,5,0.0,0.0,91,0.00,CLR,OVC,0.39,WeatherDisplay:10.37,2013-04-05 21:57:00,
2013-04-05 15:02:00,52.4,49.8,29.88,North,2,0.0,0.0,91,0.00,CLR,OVC,0.39,WeatherDisplay:10.37,2013-04-05 22:02:00,
2013-04-05 15:07:00,52.3,49.5,29.88,North,4,0.0,0.0,90,0.00,CLR,OVC,0.39,WeatherDisplay:10.37,2013-04-05 22:07:00,
2013-04-05 15:12:00,52.4,49.9,29.87,North,6,0.0,0.0,91,0.00,CLR,OVC,0.39,WeatherDisplay:10.37,2013-04-05 22:12:00,
2013-04-05 15:17:00,52.5,49.7,29.88,North,3,0.0,0.0,90,0.00,CLR,OVC,0.39,WeatherDisplay:10.37,2013-04-05 22:17:00,
2013-04-05 15:22:00,52.5,49.4,29.88,North,4,0.0,0.0,89,0.00,CLR,OVC,0.39,WeatherDisplay:10.37,2013-04-05 22:22:00,
2013-04-05 15:27:00,52.5,49.7,29.88,North,5,0.0,0.0,90,0.00,CLR,OVC,0.39,WeatherDisplay:10.37,2013-04-05 22:27:00,
2013-04-05 15:32:00,52.5,49.7,29.88,North,4,0.0,0.0,90,0.00,CLR,OVC,0.39,WeatherDisplay:10.37,2013-04-05 22:32:00,
2013-04-05 15:37:00,52.4,49.3,29.87,North,6,0.0,0.0,89,0.00,CLR,OVC,0.39,WeatherDisplay:10.37,2013-04-05 22:37:00,
2013-04-05 15:42:00,52.4,49.3,29.87,North,7,0.0,0.0,89,0.00,CLR,OVC,0.39,WeatherDisplay:10.37,2013-04-05 22:42:00,
2013-04-05 15:47:00,52.4,48.9,29.87,North,5,0.0,0.0,88,0.00,CLR,OVC,0.39,WeatherDisplay:10.37,2013-04-05 22:47:00,
2013-04-05 15:52:00,52.5,49.4,29.87,North,5,0.0,0.0,89,0.00,CLR,OVC,0.39,WeatherDisplay:10.37,2013-04-05 22:52:00,
2013-04-05 15:57:00,52.6,49.4,29.87,North,4,0.0,0.0,89,0.00,CLR,OVC,0.39,WeatherDisplay:10.37,2013-04-05 22:57:00,
2013-04-05 16:02:00,52.6,49.4,29.87,North,3,0.0,0.0,89,0.00,CLR,OVC,0.39,WeatherDisplay:10.37,2013-04-05 23:02:00,
2013-04-05 16:12:00,52.7,49.5,29.87,North,7,0.0,0.0,89,0.00,CLR,OVC,0.39,WeatherDisplay:10.37,2013-04-05 23:12:00,
2013-04-05 16:22:00,52.8,49.6,29.87,North,3,0.0,0.0,89,0.00,CLR,OVC,0.39,WeatherDisplay:10.37,2013-04-05 23:22:00,
2013-04-05 16:27:00,52.8,49.3,29.87,North,3,0.0,0.0,88,0.00,CLR,OVC,0.39,WeatherDisplay:10.37,2013-04-05 23:27:00,
2013-04-05 16:37:00,52.6,49.2,29.87,North,5,0.0,0.0,88,0.00,CLR,OVC,0.39,WeatherDisplay:10.37,2013-04-05 23:37:00,
2013-04-05 16:42:00,52.5,49.0,29.87,North,7,0.0,0.0,88,0.00,CLR,OVC,0.39,WeatherDisplay:10.37,2013-04-05 23:42:00,
2013-04-05 16:52:00,52.3,48.9,29.86,North,4,0.0,0.0,88,0.00,CLR,OVC,0.39,WeatherDisplay:10.37,2013-04-05 23:52:00,
2013-04-05 16:57:00,52.2,48.8,29.86,North,6,0.0,0.0,88,0.00,CLR,OVC,0.39,WeatherDisplay:10.37,2013-04-05 23:57:00,
2013-04-05 17:07:00,52.2,49.3,29.86,North,3,0.0,0.0,90,0.00,CLR,OVC,0.39,WeatherDisplay:10.37,2013-04-06 00:07:00,
2013-04-05 17:12:00,52.2,49.3,29.86,North,6,0.0,0.0,90,0.00,CLR,OVC,0.39,WeatherDisplay:10.37,2013-04-06 00:12:00,
2013-04-05 17:17:00,52.0,48.6,29.86,North,5,0.0,0.0,88,0.00,CLR,OVC,0.39,WeatherDisplay:10.37,2013-04-06 00:17:00,
2013-04-05 17:22:00,52.0,48.6,29.86,North,3,0.0,0.0,88,0.00,CLR,OVC,0.39,WeatherDisplay:10.37,2013-04-06 00:22:00,
2013-04-05 17:27:00,51.9,48.5,29.86,North,4,0.0,0.0,88,0.00,CLR,OVC,0.39,WeatherDisplay:10.37,2013-04-06 00:27:00,
2013-04-05 17:32:00,51.9,48.4,29.86,North,6,0.0,0.0,88,0.00,CLR,OVC,0.39,WeatherDisplay:10.37,2013-04-06 00:32:00,
2013-04-05 17:37:00,51.7,48.6,29.86,North,4,0.0,0.0,89,0.00,CLR,OVC,0.39,WeatherDisplay:10.37,2013-04-06 00:37:00,
2013-04-05 17:42:00,51.6,48.8,29.86,North,3,0.0,0.0,90,0.00,CLR,OVC,0.39,WeatherDisplay:10.37,2013-04-06 00:42:00,
2013-04-05 17:47:00,51.5,48.7,29.86,North,4,0.0,0.0,90,0.00,CLR,OVC,0.39,WeatherDisplay:10.37,2013-04-06 00:47:00,
2013-04-05 17:52:00,51.3,48.5,29.86,North,5,0.0,0.0,90,0.00,CLR,OVC,0.39,WeatherDisplay:10.37,2013-04-06 00:52:00,
2013-04-05 17:57:00,51.2,48.7,29.86,North,2,0.0,0.0,91,0.00,CLR,OVC,0.39,WeatherDisplay:10.37,2013-04-06 00:57:00,
2013-04-05 18:07:00,51.0,48.5,29.86,North,5,0.0,0.0,91,0.00,CLR,OVC,0.39,WeatherDisplay:10.37,2013-04-06 01:07:00,
2013-04-05 18:12:00,50.9,48.7,29.86,North,5,0.0,0.0,92,0.01,RA,OVC,0.40,WeatherDisplay:10.37,2013-04-06 01:12:00,
2013-04-05 18:17:00,50.9,48.7,29.86,North,3,0.0,0.0,92,0.01,RA,OVC,0.40,WeatherDisplay:10.37,2013-04-06 01:17:00,
2013-04-05 18:22:00,50.8,48.6,29.86,North,3,0.0,0.0,92,0.00,CLR,OVC,0.40,WeatherDisplay:10.37,2013-04-06 01:22:00,
2013-04-05 18:27:00,50.7,48.5,29.85,North,4,0.0,0.0,92,0.00,CLR,OVC,0.40,WeatherDisplay:10.37,2013-04-06 01:27:00,
2013-04-05 18:37:00,50.5,48.6,29.85,North,3,0.0,0.0,93,0.00,CLR,OVC,0.40,WeatherDisplay:10.37,2013-04-06 01:37:00,
2013-04-05 18:42:00,50.4,48.5,29.85,North,3,0.0,0.0,93,0.01,RA,OVC,0.41,WeatherDisplay:10.37,2013-04-06 01:42:00,
2013-04-05 18:47:00,50.4,48.5,29.85,North,4,0.0,0.0,93,0.01,RA,OVC,0.41,WeatherDisplay:10.37,2013-04-06 01:47:00,
2013-04-05 18:57:00,50.2,48.3,29.85,North,3,0.0,0.0,93,0.02,RA,OVC,0.43,WeatherDisplay:10.37,2013-04-06 01:57:00,
2013-04-05 19:07:00,50.1,48.4,29.84,North,3,0.0,0.0,94,0.01,RA,OVC,0.44,WeatherDisplay:10.37,2013-04-06 02:07:00,
2013-04-05 19:12:00,50.0,48.4,29.84,North,4,0.0,0.0,94,0.01,RA,OVC,0.44,WeatherDisplay:10.37,2013-04-06 02:12:00,
2013-04-05 19:17:00,50.0,48.3,29.84,North,3,0.0,0.0,94,0.00,CLR,OVC,0.44,WeatherDisplay:10.37,2013-04-06 02:17:00,
2013-04-05 19:27:00,49.9,48.3,29.84,North,3,0.0,0.0,94,0.05,RA,OVC,0.49,WeatherDisplay:10.37,2013-04-06 02:27:00,
2013-04-05 19:37:00,49.7,48.0,29.83,North,3,0.0,0.0,94,0.03,RA,OVC,0.52,WeatherDisplay:10.37,2013-04-06 02:37:00,
2013-04-05 19:42:00,49.6,48.0,29.83,North,3,0.0,0.0,94,0.03,RA,OVC,0.54,WeatherDisplay:10.37,2013-04-06 02:42:00,
2013-04-05 19:47:00,49.5,47.8,29.83,North,1,0.0,0.0,94,0.03,RA,OVC,0.55,WeatherDisplay:10.37,2013-04-06 02:47:00,
2013-04-05 19:52:00,49.4,47.7,29.84,North,3,0.0,0.0,94,0.02,RA,OVC,0.56,WeatherDisplay:10.37,2013-04-06 02:52:00,
2013-04-05 19:57:00,49.2,47.5,29.83,North,3,0.0,0.0,94,0.02,RA,OVC,0.57,WeatherDisplay:10.37,2013-04-06 02:57:00,
2013-04-05 20:02:00,49.1,47.4,29.83,North,2,0.0,0.0,94,0.01,RA,OVC,0.57,WeatherDisplay:10.37,2013-04-06 03:02:00,
2013-04-05 20:07:00,49.0,47.3,29.83,North,3,0.0,0.0,94,0.00,,OVC,0.57,WeatherDisplay:10.37,2013-04-06 03:07:00,
2013-04-05 20:12:00,48.9,47.2,29.83,North,3,0.0,0.0,94,0.00,,OVC,0.57,WeatherDisplay:10.37,2013-04-06 03:12:00,
2013-04-05 20:17:00,48.8,47.4,29.83,North,5,0.0,0.0,95,0.00,,OVC,0.57,WeatherDisplay:10.37,2013-04-06 03:17:00,
2013-04-05 20:22:00,48.8,47.4,29.83,North,6,0.0,0.0,95,0.00,,OVC,0.57,WeatherDisplay:10.37,2013-04-06 03:22:00,
2013-04-05 20:27:00,48.7,47.3,29.83,North,4,0.0,0.0,95,0.00,,OVC,0.57,WeatherDisplay:10.37,2013-04-06 03:27:00,
2013-04-05 20:37:00,48.5,47.1,29.84,North,3,0.0,0.0,95,0.01,RA,OVC,0.58,WeatherDisplay:10.37,2013-04-06 03:37:00,
2013-04-05 20:42:00,48.4,47.1,29.84,North,4,0.0,0.0,95,0.01,RA,OVC,0.58,WeatherDisplay:10.37,2013-04-06 03:42:00,
2013-04-05 20:47:00,48.3,46.9,29.84,North,4,0.0,0.0,95,0.00,,OVC,0.58,WeatherDisplay:10.37,2013-04-06 03:47:00,
2013-04-05 20:52:00,48.2,46.8,29.84,North,3,0.0,0.0,95,0.00,,OVC,0.58,WeatherDisplay:10.37,2013-04-06 03:52:00,
2013-04-05 20:57:00,48.1,46.7,29.84,North,3,0.0,0.0,95,0.00,,OVC,0.58,WeatherDisplay:10.37,2013-04-06 03:57:00,
2013-04-05 21:02:00,48.1,46.7,29.84,North,3,0.0,0.0,95,0.00,,OVC,0.58,WeatherDisplay:10.37,2013-04-06 04:02:00,
2013-04-05 21:07:00,47.9,46.5,29.84,North,2,0.0,0.0,95,0.00,,OVC,0.58,WeatherDisplay:10.37,2013-04-06 04:07:00,
2013-04-05 21:12:00,47.7,46.3,29.84,North,2,0.0,0.0,95,0.00,,OVC,0.58,WeatherDisplay:10.37,2013-04-06 04:12:00,
2013-04-05 21:17:00,47.6,46.2,29.84,North,3,0.0,0.0,95,0.00,,OVC,0.58,WeatherDisplay:10.37,2013-04-06 04:17:00,
2013-04-05 21:22:00,47.5,46.1,29.84,North,3,0.0,0.0,95,0.00,,OVC,0.58,WeatherDisplay:10.37,2013-04-06 04:22:00,
2013-04-05 21:27:00,47.3,45.9,29.84,North,1,0.0,0.0,95,0.00,,OVC,0.58,WeatherDisplay:10.37,2013-04-06 04:27:00,
2013-04-05 21:32:00,47.2,45.8,29.84,North,2,0.0,0.0,95,0.00,,OVC,0.58,WeatherDisplay:10.37,2013-04-06 04:32:00,
2013-04-05 21:37:00,47.0,45.6,29.84,North,2,0.0,0.0,95,0.00,,OVC,0.58,WeatherDisplay:10.37,2013-04-06 04:37:00,
2013-04-05 21:42:00,46.9,45.6,29.84,North,2,0.0,0.0,95,0.00,,OVC,0.58,WeatherDisplay:10.37,2013-04-06 04:42:00,
2013-04-05 21:47:00,46.9,45.5,29.84,North,2,0.0,0.0,95,0.00,,OVC,0.58,WeatherDisplay:10.37,2013-04-06 04:47:00,
2013-04-05 21:52:00,46.8,45.5,29.84,North,2,0.0,0.0,95,0.00,,OVC,0.58,WeatherDisplay:10.37,2013-04-06 04:52:00,
2013-04-05 21:57:00,46.8,45.5,29.84,North,3,0.0,0.0,95,0.00,,OVC,0.58,WeatherDisplay:10.37,2013-04-06 04:57:00,
2013-04-05 22:02:00,46.9,45.5,29.84,North,2,0.0,0.0,95,0.00,,OVC,0.58,WeatherDisplay:10.37,2013-04-06 05:02:00,
2013-04-05 22:07:00,46.9,45.5,29.83,North,1,0.0,0.0,95,0.00,,OVC,0.58,WeatherDisplay:10.37,2013-04-06 05:07:00,
2013-04-05 22:17:00,46.9,45.5,29.83,North,2,0.0,0.0,95,0.00,,OVC,0.58,WeatherDisplay:10.37,2013-04-06 05:17:00,
2013-04-05 22:27:00,46.9,45.5,29.82,North,3,0.0,0.0,95,0.00,,OVC,0.58,WeatherDisplay:10.37,2013-04-06 05:27:00,
2013-04-05 22:32:00,46.8,45.4,29.82,North,3,0.0,0.0,95,0.00,,OVC,0.58,WeatherDisplay:10.37,2013-04-06 05:32:00,
2013-04-05 22:37:00,46.8,45.4,29.82,North,2,0.0,0.0,95,0.00,,OVC,0.58,WeatherDisplay:10.37,2013-04-06 05:37:00,
2013-04-05 22:42:00,46.8,45.4,29.82,North,2,0.0,0.0,95,0.00,,OVC,0.58,WeatherDisplay:10.37,2013-04-06 05:42:00,
2013-04-05 22:47:00,46.8,45.4,29.82,North,3,0.0,0.0,95,0.00,,OVC,0.58,WeatherDisplay:10.37,2013-04-06 05:47:00,
2013-04-05 22:52:00,46.8,45.4,29.81,North,3,0.0,0.0,95,0.00,,OVC,0.58,WeatherDisplay:10.37,2013-04-06 05:52:00,
2013-04-05 22:57:00,46.8,45.4,29.81,North,3,0.0,0.0,95,0.00,,OVC,0.58,WeatherDisplay:10.37,2013-04-06 05:57:00,
2013-04-05 23:02:00,46.8,45.4,29.81,North,3,0.0,0.0,95,0.00,,OVC,0.58,WeatherDisplay:10.37,2013-04-06 06:02:00,
2013-04-05 23:07:00,46.8,45.5,29.80,North,4,0.0,0.0,95,0.00,,OVC,0.58,WeatherDisplay:10.37,2013-04-06 06:07:00,
2013-04-05 23:12:00,46.8,45.5,29.80,North,2,0.0,0.0,95,0.00,,OVC,0.58,WeatherDisplay:10.37,2013-04-06 06:12:00,
2013-04-05 23:17:00,46.8,45.4,29.79,North,1,0.0,0.0,95,0.00,,OVC,0.58,WeatherDisplay:10.37,2013-04-06 06:17:00,
2013-04-05 23:27:00,46.8,45.4,29.79,North,2,0.0,0.0,95,0.00,,OVC,0.58,WeatherDisplay:10.37,2013-04-06 06:27:00,
2013-04-05 23:32:00,46.8,45.4,29.79,North,1,0.0,0.0,95,0.00,,OVC,0.58,WeatherDisplay:10.37,2013-04-06 06:32:00,
2013-04-05 23:37:00,46.8,45.4,29.78,North,1,0.0,0.0,95,0.00,,OVC,0.58,WeatherDisplay:10.37,2013-04-06 06:37:00,
2013-04-05 23:47:00,46.7,45.3,29.77,North,3,0.0,0.0,95,0.00,,OVC,0.58,WeatherDisplay:10.37,2013-04-06 06:47:00,
2013-04-05 23:57:00,46.5,45.1,29.76,North,1,0.0,0.0,95,0.00,,OVC,0.58,WeatherDisplay:10.37,2013-04-06 06:57:00,